Mukilteo, WA

3:47 PM PDT on August 25, 2016 (GMT -0700)
Snohomish County

Weather History for KPAE - September, 2013

Change the Weather History Date:

Friday, September 13, 2013

  Actual Average Record
Temperature  
Mean Temperature 59 °F -  
Max Temperature 63 °F 68 °F 79 °F (1999)
Min Temperature 55 °F 47 °F 32 °F (1970)
Degree Days  
Heating Degree Days 6    
Growing Degree Days 9 (Base 50)    
Moisture  
Dew Point 57 °F    
Average Humidity 92    
Maximum Humidity 100    
Minimum Humidity 82    
Precipitation  
Precipitation 0.01 in - - ()
Sea Level Pressure  
Sea Level Pressure 29.95 in    
Wind  
Wind Speed 3 mph (West)    
Max Wind Speed 7 mph    
Max Gust Speed -    
Visibility 2 miles    
Events Fog    
Averages and records for this station are not official NWS values.
T = Trace of Precipitation, MM = Missing Value Source: NWS Daily Summary

Daily Weather History Graph

Daily Weather History Graph

Search for Another Location

Airport or City:

Trip Planner

Search our weather history database for the weather conditions in past years. The results will help you decide how hot, cold, wet, or windy it might be!

Date:

Astronomy

Sep. 13, 2013 Rise Set
Actual Time 6:44 AM PDT 7:24 PM PDT
Civil Twilight 6:12 AM PDT 7:56 PM PDT
Nautical Twilight 5:35 AM PDT 8:33 PM PDT
Astronomical Twilight 4:56 AM PDT 9:11 PM PDT
Moon 3:38 PM PDT (9/13) No Moon Set
Length of Visible Light 13h 43m
Length of Day
12h 40m
Waxing Gibbous, 62% of the Moon is Illuminated
Sep 13
Waxing Gibbous
Sep 19
Full
Sep 26
Last Quarter
Oct 4
New
Oct 11
First Quarter

Hourly Weather History & Observations

Time (PDT) Temp. Dew Point Humidity Pressure Visibility Wind Dir Wind Speed Gust Speed Precip Events Conditions
12:53 AM 62.1 °F 57.0 °F 84% 29.95 in 10.0 mi NE 3.5 mph - N/A   Clear
1:22 AM 59.0 °F 55.4 °F 88% 29.96 in 2.0 mi NNE 3.5 mph - N/A   Partly Cloudy
1:24 AM 57.2 °F 55.4 °F 94% 29.96 in 1.0 mi North 3.5 mph - N/A   Mist
1:27 AM 57.2 °F 55.4 °F 94% 29.96 in 0.2 mi North 3.5 mph - N/A Fog Fog
1:41 AM 57.2 °F 57.2 °F 100% 29.96 in 0.2 mi NNE 4.6 mph - N/A Fog Fog
1:53 AM 57.9 °F 57.0 °F 97% 29.96 in 0.2 mi Variable 4.6 mph - N/A Fog Fog
2:53 AM 57.0 °F 55.9 °F 96% 29.96 in 0.2 mi Calm Calm - N/A Fog Fog
3:53 AM 57.0 °F 55.0 °F 93% 29.96 in 0.2 mi North 4.6 mph - N/A Fog Fog
4:53 AM 55.9 °F 55.0 °F 97% 29.97 in 0.2 mi Calm Calm - N/A Fog Fog
5:53 AM 55.9 °F 55.0 °F 97% 29.98 in 0.2 mi Calm Calm - N/A Fog Fog
6:26 AM 57.2 °F 55.4 °F 94% 29.98 in 0.2 mi Calm Calm - N/A Fog Fog
6:33 AM 57.2 °F 55.4 °F 94% 29.99 in 0.5 mi Calm Calm - N/A Fog Fog
6:53 AM 57.9 °F 55.9 °F 93% 29.99 in 2.0 mi South 6.9 mph - N/A   Overcast
7:01 AM 57.2 °F 55.4 °F 94% 29.99 in 3.0 mi South 4.6 mph - N/A   Overcast
7:04 AM 57.2 °F 55.4 °F 94% 29.99 in 0.2 mi South 5.8 mph - N/A Fog Fog
7:53 AM 57.9 °F 57.0 °F 97% 29.98 in 0.2 mi Calm Calm - N/A Fog Fog
8:53 AM 57.9 °F 57.0 °F 97% 29.98 in 0.2 mi Calm Calm - N/A Fog Fog
9:00 AM 57.2 °F 57.2 °F 100% 29.98 in 0.5 mi Calm Calm - N/A Fog Fog
9:07 AM 57.2 °F 57.2 °F 100% 29.98 in 0.2 mi Calm Calm - N/A Fog Fog
9:53 AM 59.0 °F 57.9 °F 96% 29.98 in 0.5 mi Calm Calm - N/A Fog Fog
10:53 AM 59.0 °F 57.9 °F 96% 29.97 in 0.2 mi WNW 3.5 mph - N/A Fog Fog
11:16 AM 59.0 °F 57.2 °F 94% 29.98 in 0.2 mi WSW 4.6 mph - N/A Fog Fog
11:53 AM 59.0 °F 57.9 °F 96% 29.97 in 0.2 mi SW 4.6 mph - N/A Fog Fog
12:53 PM 60.1 °F 57.9 °F 93% 29.96 in 2.0 mi West 5.8 mph - N/A   Overcast
1:53 PM 62.1 °F 57.9 °F 86% 29.95 in 4.0 mi WSW 4.6 mph - N/A   Overcast
2:53 PM 62.1 °F 57.9 °F 86% 29.94 in 4.0 mi West 5.8 mph - 0.01 in   Overcast
3:53 PM 63.0 °F 57.9 °F 84% 29.93 in 6.0 mi WSW 5.8 mph - N/A   Haze
4:53 PM 63.0 °F 57.9 °F 84% 29.91 in 6.0 mi SW 4.6 mph - N/A   Haze
5:53 PM 62.1 °F 59.0 °F 90% 29.91 in 6.0 mi WSW 4.6 mph - N/A   Overcast
6:53 PM 61.0 °F 57.9 °F 90% 29.90 in 3.0 mi WSW 4.6 mph - N/A   Overcast
7:53 PM 61.0 °F 59.0 °F 93% 29.90 in 3.0 mi Calm Calm - N/A   Overcast
8:00 PM 60.8 °F 57.2 °F 88% 29.90 in 3.0 mi Calm Calm - N/A   Overcast
8:07 PM 60.8 °F 59.0 °F 94% 29.91 in 3.0 mi Calm Calm - N/A   Overcast
8:19 PM 60.8 °F 57.2 °F 88% 29.91 in 3.0 mi WSW 3.5 mph - N/A   Overcast
8:53 PM 61.0 °F 59.0 °F 93% 29.91 in 3.0 mi Calm Calm - N/A   Overcast
9:30 PM 62.6 °F 57.2 °F 82% 29.91 in 7.0 mi Calm Calm - N/A   Overcast
9:53 PM 62.1 °F 57.9 °F 86% 29.91 in 8.0 mi Calm Calm - N/A   Overcast
10:53 PM 62.1 °F 57.9 °F 86% 29.91 in 7.0 mi Calm Calm - N/A   Overcast
11:53 PM 62.1 °F 57.9 °F 86% 29.91 in 7.0 mi Calm Calm - N/A   Overcast